Location: Arthez
(43.0833°N, 0.2500°W)
Time: 01:30:40
(UTC+00:00)

NOSS 3-1 (A) - Pass Details

Date: 03 June 2022
Orbit: 711 x 1501 km, 63.4° (Epoch: 21 May)

Event Time Altitude Azimuth Distance (km) Brightness Sun altitude
Rises 01:03:16 0° 304° (NW) 4,195 7.0 -23.0°
Reaches altitude 10° 01:08:16 10° 277° (W) 3,392 6.2 -22.7°
Maximum altitude 01:11:06 12° 256° (WSW) 3,306 6.0 -22.6°
Enters shadow 01:11:34 12° 253° (WSW) 3,322 5.9 -22.5°
